FENGYUN 1C DEB, 31715

Orbit data source: Space-Track

FENGYUN 1C DEB, 31715 is space debris in SSO originally from a launch on Mon, 10 May 1999 UTC launched from the Taiyaun Space Center, China (TSC). Fengyun 1C debris stems from the Chinese weather satellite Fengyun-1C, which was intentionally destroyed by a Chinese anti-satellite missile in 2007. This event dramatically increased the amount of space debris, with thousands of trackable fragments posing hazards to satellites and human spaceflight. The Fengyun 1C debris cloud has become a focal point in discussions about space sustainability and the need for international regulations to prevent the creation of new debris.

Loading next visibility...
Identifier
31715, 1999-025CDN
Orbit
SSO
Country
Flag of CNCN / PRC
Related business
Manufacturer
Unknown
Mission
Spacecraft
Bus & Motor
Unknown
Mass
Unknown
Launch date (UTC)
1999-05-10 (27 years ago)
Launch vehicle
Unknown
Launch site
Taiyaun Space Center, China (TSC)
Object type
Payload
Rocket body
Debris
Shape & HBR
Unknown shape, 0.1 m
Radar Cross Section
Small (<0.1 m²)

Expand to show TLE details & history
Last TLE update: 5 days ago

TLE from 5 days ago
0 FENGYUN 1C DEB
1 31715U 99025CDN 26203.32977074  .00002542  00000-0  49720-3 0  9992
2 31715  99.2805  61.0854 0181978 176.9524 183.2824 14.53913691649351
Epoch: 2026-07-22T07:54Z
TLE epoch observation values (Epoch: 2026-07-22T07:54:52.191Z)
Latitude
-0.00008°
Longitude
2.28128°
Altitude
844.701 km
Speed
7.363 km/s
True Right ascension
04h 04m 20s
True Declination
0° 00' 00"
Sunlit
Object was in daylight at epoch
Visualization orbit readout
Latitude
Unknown
Longitude
Unknown
Altitude
Unknown
Speed
Unknown
Apparent Right ascension
Unknown
Apparent Declination
Unknown
Sunlit
N/A
Visualization observer readout
Local Sidereal Time
00:29:30
Azimuth
Unknown
Elevation
Unknown
Doppler factor
Unknown
Orbital elements
Apogee altitude
839.024 km
Perigee altitude
581.046 km
Semi-major axis
7,088.172 km
Eccentricity
0.0182
Inclination
99.2805°
RAAN
61.0854°
Arg. of periapsis
176.9524°
True anomaly
183.16565°
Mean anomaly
183.2824°
Eccentric anomaly
183.22377°
Mean motion
3.63699 °/min
Orbital period
98.98 mins
BSTAR
0.0004972
Loading maneuver chart data...
Computing Atmospheric mass density...

Documentation

Showing up to 5 results
|